Weather History for Wheeling, WV

Change the Weather History Date:

Wednesday, January 23, 2013

  Actual Average Record
Temperature  
Mean Temperature 11 °F 29 °F  
Max Temperature 17 °F 36 °F 62 °F (2012)
Min Temperature 5 °F 22 °F 2 °F (2014)
Degree Days  
Heating Degree Days 54 36  
Month to date heating degree days 745 828  
Since 1 July heating degree days 2771 2953  
Cooling Degree Days 0    
Month to date cooling degree days 0  
Year to date cooling degree days 0  
Moisture  
Dew Point 1 °F    
Average Humidity 60    
Maximum Humidity 73    
Minimum Humidity 46    
Precipitation  
Precipitation T in 0.06 in 1.28 in (1982)
Month to date precipitation 0.58 2.16  
Sea Level Pressure  
Sea Level Pressure 30.25 in    
Wind  
Wind Speed 7 mph (WSW)    
Max Wind Speed 15 mph    
Max Gust Speed 20 mph    
Visibility 9 miles    
Events Snow    
T = Trace of Precipitation, MM = Missing Value Source: NWS Daily Summary

Daily Weather History Graph

Daily Weather History Graph

Search for Another Location

Airport:

Trip Planner

Search our weather history database for the weather conditions in past years. The results will help you decide how hot, cold, wet, or windy it might be!

Date:

Astronomy

Jan. 23, 2013 Rise Set
Actual Time 7:38 AM EST 5:30 PM EST
Civil Twilight 7:09 AM EST 6:00 PM EST
Nautical Twilight 6:36 AM EST 6:33 PM EST
Astronomical Twilight 6:04 AM EST 7:05 PM EST
Moon 2:40 PM EST (1/23) 4:48 AM EST (1/23)
Length of Visible Light 10h 50m
Length of Day
9h 52m
Waxing Gibbous, 89% of the Moon is Illuminated
Jan 23
Waxing Gibbous
Jan 26
Full
Feb 3
Last Quarter
Feb 10
New
Feb 17
First Quarter

Hourly Weather History & Observations

Time (EST) Temp. Windchill Dew Point Humidity Pressure Visibility Wind Dir Wind Speed Gust Speed Precip Events Conditions
12:53 AM 7.0 °F -5.7 °F -2.0 °F 67% 30.32 in 10.0 mi West 8.1 mph - N/A   Clear
1:53 AM 7.0 °F -5.7 °F -2.9 °F 64% 30.32 in 10.0 mi West 8.1 mph - N/A   Clear
2:53 AM 6.1 °F -6.8 °F -2.0 °F 69% 30.34 in 10.0 mi West 8.1 mph - N/A   Clear
3:53 AM 6.1 °F -4.3 °F -2.0 °F 69% 30.33 in 10.0 mi WSW 5.8 mph - N/A   Clear
4:53 AM 6.1 °F -5.6 °F -2.9 °F 67% 30.33 in 10.0 mi West 6.9 mph - N/A   Clear
5:53 AM 6.1 °F -7.8 °F -2.9 °F 67% 30.34 in 10.0 mi West 9.2 mph - N/A   Clear
6:53 AM 6.1 °F -4.3 °F -2.0 °F 69% 30.35 in 10.0 mi West 5.8 mph - N/A   Clear
7:53 AM 6.1 °F -6.8 °F -2.9 °F 67% 30.34 in 10.0 mi West 8.1 mph - N/A   Clear
8:53 AM 8.1 °F -0.5 °F -0.9 °F 67% 30.35 in 10.0 mi SW 4.6 mph - N/A   Mostly Cloudy
9:53 AM 10.0 °F -0.9 °F 1.0 °F 67% 30.35 in 10.0 mi West 6.9 mph - N/A   Overcast
10:53 AM 12.0 °F 1.5 °F -0.0 °F 59% 30.35 in 10.0 mi Variable 6.9 mph - N/A   Overcast
11:53 AM 12.9 °F 0.7 °F -2.0 °F 51% 30.32 in 10.0 mi WSW 9.2 mph - N/A   Overcast
12:53 PM 14.0 °F 2.9 °F -2.0 °F 49% 30.27 in 10.0 mi WSW 8.1 mph - N/A   Overcast
1:53 PM 15.1 °F 4.2 °F -2.9 °F 45% 30.25 in 10.0 mi WSW 8.1 mph 17.3 mph N/A   Overcast
2:53 PM 16.0 °F 5.3 °F -2.0 °F 45% 30.23 in 10.0 mi SW 8.1 mph 17.3 mph N/A   Overcast
3:53 PM 16.0 °F 3.6 °F -2.0 °F 45% 30.22 in 10.0 mi WSW 10.4 mph 17.3 mph N/A   Overcast
4:53 PM 16.0 °F 3.6 °F -0.9 °F 47% 30.21 in 10.0 mi SW 10.4 mph - N/A   Overcast
5:53 PM 16.0 °F 7.4 °F 1.0 °F 52% 30.18 in 10.0 mi WSW 5.8 mph - N/A   Overcast
6:53 PM 16.0 °F 8.8 °F 3.0 °F 57% 30.17 in 10.0 mi SSW 4.6 mph - N/A   Overcast
7:53 PM 16.0 °F 5.3 °F 6.1 °F 65% 30.16 in 7.0 mi SW 8.1 mph - 0.00 in   Overcast
8:53 PM 15.1 °F 6.4 °F 7.0 °F 70% 30.15 in 10.0 mi SW 5.8 mph - 0.00 in   Overcast
9:53 PM 14.0 °F 8.2 °F 7.0 °F 74% 30.14 in 9.0 mi SW 3.5 mph - N/A   Overcast
10:53 PM 15.1 °F - 10.0 °F 80% 30.11 in 3.0 mi Calm Calm - 0.00 in Snow Light Snow
11:10 PM 15.8 °F - 10.4 °F 79% 30.03 in 2.5 mi Calm Calm - 0.00 in Snow Light Snow
11:53 PM 15.1 °F - 12.0 °F 88% 30.10 in 2.0 mi Calm Calm - 0.00 in Snow Light Snow